{"data":{"norad_id":37875,"epoch":"2026-09-20T05:12:37.453824Z","epoch_age_seconds":54368,"freshness":"FRESH","line1":"1 37875U 11066B   26263.21710016  .00002052  00000+0  79044-4 0  9997","line2":"2 37875  97.1074 297.3279 0008322 241.4596 118.5807 15.27401051826546","mean_motion":15.27401051,"eccentricity":0.0008322,"inclination_deg":97.1074,"raan_deg":297.3279,"arg_perigee_deg":241.4596,"mean_anomaly_deg":118.5807,"bstar":7.9044e-5,"rev_number":82654,"period_min":94.277792925258,"perigee_km":477.874661,"apogee_km":489.29531107355,"semimajor_km":6861.7219860368,"source":"CELESTRAK","updated_at":"2026-09-20T09:00:13.814768Z"}}